Regional Weather Roundup
Issued by NWS Cleveland, OH

Home | Current Version | Previous Version | Text Only | Print | Product List | Glossary Off
Versions: 1 2 3 4 5 6 7 8 9 10 11 12 13 14 15 16 17 18 19 20 21 22 23 24 25 26 27 28 29 30 31 32 33 34 35 36 37 38 39 40 41 42 43 44 45 46 47 48 49 50

000
ASUS41 KCLE 131002
RWRCLE
OHIO REGIONAL WEATHER ROUNDUP
NATIONAL WEATHER SERVICE CLEVELAND, OH
500 AM EST SAT FEB 13 2016

NOTE: "FAIR" INDICATES FEW OR NO CLOUDS BELOW 12,000 FEET WITH NO
SIGNIFICANT WEATHER AND/OR OBSTRUCTIONS TO VISIBILITY.

OHZ001>008-015>018-024>027-034-035-043-044-131100-
   NORTHWEST OHIO

CITY           SKY/WX    TMP DP  RH WIND       PRES   REMARKS
DEFIANCE       CLEAR      5  -5  63 W3        30.41R
FINDLAY        CLEAR      6  -7  54 NW9       30.37R WCI  -8
TOLEDO EXPRESS CLEAR      4  -8  57 W8        30.39R WCI  -9
TOLEDO EXEC    CLEAR      6  -7  54 NW13      30.39R WCI -10
LIMA           CLEAR      6  -4  63 N13       30.37R WCI -10
$$

OHZ009>014-019>023-028>033-038-089-131100-
   NORTHEAST OHIO

CITY           SKY/WX    TMP DP  RH WIND       PRES   REMARKS
CLE-HOPKINS    LGT SNOW   8  -4  58 NW21G30   30.31R WCI -12
CLE-LAKEFRONT  CLOUDY    12   2  64 NW26G38   30.27R WCI  -8
CUY CO. ARPT   NOT AVBL
LORAIN-ELYRIA  FLURRIES   8  -6  52 N17G28    30.31R WCI -10
ASHTABULA      LGT SNOW   9   2  73 NW15G28   30.19R WCI  -8
AKRON-CANTON   CLEAR      5  -9  52 NW14G28   30.22R WCI -12
WOOSTER        MOCLDY     5  -1  76 NW10      30.26R WCI -10
MANSFIELD      CLEAR      3  -8  60 NW10      30.27R WCI -12
YOUNGSTOWN     PTCLDY     6  -5  60 W10       30.18R WCI  -9
$$

OHZ042-051>053-060>062-070>072-077>081-131100-
  SOUTHWEST OHIO

CITY           SKY/WX    TMP DP  RH WIND       PRES   REMARKS
CINC-COVINGTON PTCLDY    13   2  61 NW16      30.40R WCI  -3
CINC-LUNKEN    PTCLDY    14   4  64 N8        30.45R WCI   3
HAMILTON       PTCLDY    13   3  64 NW10      30.43R WCI   0
DAYTON         CLOUDY    10   1  67 N15       30.38R WCI  -7
WRIGHT-PAT AFB MOCLDY    11  -2  54 NW16G23   30.38R WCI  -5
DAYTON GENERAL CLOUDY    12   4  70 NW9       30.37R HAZE    WCI   0
WILMINGTON     MOCLDY    11   4  73 NW12      30.34R WCI  -3
$$

OHZ036-037-039>041-045>050-054>059-063>069-073>076-082>088-131100-
  CENTRAL AND SOUTHEAST OHIO

CITY           SKY/WX    TMP DP  RH WIND       PRES   REMARKS
COLUMBUS       PTCLDY     9  -4  55 NW14      30.35R WCI  -7
OSU AIRPORT    CLEAR      7  -2  66 N9        30.35R WCI  -7
BOLTON FIELD   NOT AVBL
RICKENBACK AFB NOT AVBL
NEWARK         MOCLDY     9  -4  55 NW10      30.33R WCI  -5
MARION         CLEAR      6  -7  54 N13       30.34R WCI -10
LANCASTER      CLOUDY    12   3  67 N12       30.34R WCI  -2
ZANESVILLE     PTCLDY    11  -2  56 NW13      30.31R WCI  -4
NEW PHILLY     CLOUDY     9  -1  64 NW14G22   30.28R WCI  -7
$$



USA.gov is the U.S. government's official web portal to all federal, state and local government web resources and services.